STARLINK-3219, 49724

Orbit data source: Space-Track

STARLINK-3219, 49724 is a payload satellite owned by SpaceX/Seattle (US) in LEO that was launched on Thu, 02 Dec 2021 UTC via an FALCON 9 launch vehicle from the Air Force Eastern Test Range (AFETR). Payload-class satellites include a variety of spacecraft equipped with specific instruments for various scientific and technological missions. These include communications satellites like Starlink; space stations such as the ISS; scientific satellites like the Hubble; Earth observation satellites from companies like Planet Labs, Umbra, and HawkEye 360; GPS; miniature CubeSats for education and research; and military/defense satellites.

Loading next visibility...
Identifier
49724, 2021-115A
Orbit
LEO
Country
Flag of USUS
Related business
Manufacturer
SpaceX/Seattle
Mission
Operational Commercial Communications
Bus & Motor
STARLINK, Unknown motor
Mass
290 kg wet, ~270 kg dry
Launch date (UTC)
2021-12-02 (5 years ago)
Launch vehicle
FALCON 9
Launch site
Air Force Eastern Test Range (AFETR)
Object type
Payload
Rocket body
Debris
Shape & HBR
Box + 1 Pan, 10.1 m
Radar Cross Section
13.562 m², Large (>1 m²)

Expand to show TLE details & history
Last TLE update: 2 days ago

TLE from 2 days ago
0 STARLINK-3219
1 49724U 21115A   26171.41668980  .00039359  00000-0  19500-2 0  9991
2 49724  53.1590  47.9158 0002042  95.2931 120.1477 15.17408008  5823
Epoch: 2026-06-20T10:00Z
TLE epoch observation values (Epoch: 2026-06-20T10:00:01.998Z)
Latitude
-27.86628°
Longitude
-167.5239°
Altitude
522.712 km
Speed
7.601 km/s
True Right ascension
16h 44m 27s
True Declination
-27° 43' 11"
Sunlit
Object was in full shadow at epoch
Visualization orbit readout
Latitude
Unknown
Longitude
Unknown
Altitude
Unknown
Speed
Unknown
Apparent Right ascension
Unknown
Apparent Declination
Unknown
Sunlit
N/A
Visualization observer readout
Local Sidereal Time
21:32:45
Azimuth
Unknown
Elevation
Unknown
Doppler factor
Unknown
Orbital elements
Apogee altitude
515.34 km
Perigee altitude
512.526 km
Semi-major axis
6,892.07 km
Eccentricity
0.0002
Inclination
53.159°
RAAN
47.9158°
Arg. of periapsis
95.2931°
True anomaly
120.16793°
Mean anomaly
120.1477°
Eccentric anomaly
120.15782°
Mean motion
3.79331 °/min
Orbital period
94.9 mins
BSTAR
0.00195
Loading maneuver chart data...
Computing Atmospheric mass density...
Loading historical data...
Loading historical data...
Loading historical data...
Loading historical data...
Loading historical data...
Loading historical data...
Loading historical data...

Documentation

Showing up to 5 results
|